Location: Bosmont
(49.7318°N, 3.8587°E)
Time: 10:09:23
(UTC+00:00)

BREEZE-M DEB (TANK) - Pass Details

Date: 08 February 2023
Orbit: 426 x 13838 km, 45.9° (Epoch: 20 March)

Event Time Altitude Azimuth Distance (km) Brightness Sun altitude
Rises 18:52:52 0° 272° (W) 2,603 7.4 -20.0°
Reaches altitude 10° 18:54:24 10° 265° (W) 1,932 6.3 -20.3°
Maximum altitude 18:58:10 49° 189° (S) 1,203 4.0 -20.9°
Enters shadow 19:02:59 24° 127° (SE) 2,885 5.5 -21.6°
